SCP
0 0 0 0 0 0 0 0 0 0 0 0 0 0 0 0 0 0 0 0 0 0 0 0 0 0 0 0 0 0 0 0
0 0 0 0 0 0 0 0 0 0 0 0 0 0 0 0 0 0 0 0 0 0 0 0 0 0 0 0 0 0 0 0
0 0 0 0 0 0 0 0 0 0 0 0 0 0 0 0 0 0 0 0 0 0 0 0 0 0 0 0 0 0 0 0
-0 -0 -0 -0 0 0 0 0 0 0 0 0 0 0 0 0 0 0 0 0 0 0 0 0 0 0 0 0 0 0 0 0
-0 0 0 0 -0 -0 -0 -0 0 0 0 0 0 0 0 0 0 0 0 0 0 0 0 0 0 0 0 0 0 0 0 0
0 0 0 0 0 0 0 0 0 0 0 0 0 0 0 0 0 0 0 0 0 0 0 0 0 0 0 0 0 0 0 0
0 0 0 0 0 0 0 0 -0 -0 -0 -0 -0 -0 0 0 0 0 0 0 0 0 0 0 0 0 0 0 0 0 0 0
0 0 0 0 0 0 0 0 0 -0 -0 -0 -0 0 0 0 0 0 0 0 0 0 0 0 0 0 0 0 0 0 0 0
0 0 0 0 0 0 0 0 0 0 -0 0 0 0 0 0 0 0 0 0 0 0 0 0 0 0 0 0 0 0 0 0
-0 0 0 0 0 0 0 0 0 0 0 0 0 0 -0 -0 0 0 0 0 0 0 0 0 0 0 0 0 0 0 0 0
0 0 0 0 0 0 0 0 0 0 0 0 0 0 0 0 -0 -0 -0 0 0 0 0 0 0 0 0 0 0 0 0 0
0 0 0 0 0 0 0 0 0 0 0 0 0 0 0 0 0 0 0 -0 0 0 0 0 0 0 0 0 0 0 0 0
0 0 0 0 0 0 0 0 0 0 0 0 0 0 0 0 0 0 0 0 0 0 0 0 0 0 0 0 0 0 0 0
0 0 0 0 0 0 0 0 0 0 0 0 0 0 0 0 0 0 0 0 0 0 0 0 0 0 0 0 0 0 0 0
0 0 0 0 0 0 0 0 0 0 0 0 0 0 0 0 0 0 0 0 0 0 0 0 0 0 0 0 0 0 0 0
0 0 0 0 0 0 0 0 0 0 0 0 0 0 0 0 0 0 0 0 0 0 0 0 0 0 0 0 0 0 0 0
0 0 0 0 0 0 0 0 0 0 0 0 0 0 0 0 0 0 0 0 0 0 0 0 0 0 0 0 0 0 0 0
0 0 0 0 0 0 0 0 0 0 0 0 0 0 0 0 0 0 0 0 0 0 0 0 0 0 0 0 0 0 0 0
0 0 0 0 0 0 0 0 0 0 0 0 0 0 0 0 0 0 0 0 0 0 0 0 0 0 0 0 0 0 0 0
0 0 0 0 0 0 0 0 0 0 0 0 0 0 0 0 0 0 0 0 0 0 0 0 0 0 0 0 0 0 0 0
Wind_Speed_500mb
29 35 34 35 38 38 39 39 39 28 23 20 24 27 31 35 41 47 51 53 55 58 61 64 68 74 80 89 95 101 105 106
34 30 30 32 34 32 29 25 25 26 26 23 26 36 39 43 46 48 49 52 56 58 60 64 68 70 76 82 86 93 94 92
21 31 34 39 38 37 31 24 22 24 27 30 36 42 45 46 50 54 58 58 62 65 70 72 72 72 75 78 79 83 85 89
27 31 36 38 39 38 33 28 29 34 38 40 43 48 51 54 55 58 66 71 71 72 75 77 77 78 77 76 78 80 81 79
35 41 44 46 49 51 49 48 47 45 46 48 50 54 57 60 64 70 72 74 74 73 74 76 77 77 75 75 77 80 79 80
37 38 41 46 49 48 50 55 62 64 65 65 63 61 63 67 70 73 75 76 77 78 78 78 78 79 76 75 76 78 79 78
30 31 34 38 42 44 49 54 57 62 65 65 65 64 64 65 67 68 70 70 71 72 72 74 74 73 70 71 75 77 78 78
26 32 36 41 45 48 53 57 60 62 62 64 67 65 63 64 64 63 63 64 67 71 72 72 67 61 62 65 71 74 75 73
26 29 34 38 42 46 51 57 61 63 66 66 69 71 67 65 66 66 66 66 66 66 63 66 63 56 56 60 67 71 71 68
34 38 39 40 43 46 48 54 56 57 61 68 73 75 75 72 69 69 71 68 67 67 66 63 60 53 56 54 62 67 66 62
34 37 42 46 50 53 55 58 61 65 67 66 65 68 74 75 75 75 73 71 66 64 61 60 57 52 53 52 56 59 61 59
33 39 45 49 53 55 57 60 63 66 66 67 69 72 72 73 77 75 76 71 64 60 54 50 50 45 45 44 52 47 49 48
46 50 53 56 57 58 58 61 64 67 70 71 71 73 74 76 74 67 64 60 57 56 51 43 40 38 37 39 44 41 39 36
51 57 57 59 62 65 63 65 65 66 67 70 70 67 68 68 67 66 59 54 49 47 46 38 36 35 31 31 31 23 23 24
57 59 63 60 63 65 67 68 69 68 66 66 67 66 61 57 57 56 52 50 46 43 40 36 30 26 22 16 14 15 18 14
63 67 70 66 65 64 64 66 70 69 65 64 62 57 57 55 51 47 45 41 38 34 32 33 28 20 11 5 4 8 6 1
67 65 63 61 58 55 55 58 63 66 66 61 55 52 52 49 38 33 25 17 14 13 13 12 14 4 4 9 6 6 14 13
64 65 62 58 59 57 61 60 61 63 63 58 49 47 43 36 27 21 14 12 8 4 8 10 10 13 11 11 11 14 19 13
66 65 64 66 64 58 61 61 61 60 56 51 42 36 33 26 19 17 13 8 2 7 10 12 14 17 16 11 11 12 11 12
73 70 69 71 68 59 58 59 57 53 46 38 32 30 25 23 22 18 13 11 11 9 9 11 11 11 10 10 7 6 5 3
Wind_Direction_500mb
29 21 23 22 17 15 14 12 11 16 8 357 353 333 312 297 286 280 277 275 272 269 265 263 260 258 258 260 264 265 266 266
14 19 359 348 346 349 349 351 345 330 319 310 323 327 323 314 308 302 294 289 282 277 271 267 264 261 261 261 262 264 268 269
347 336 335 342 345 344 339 328 316 307 302 300 306 307 304 302 303 302 301 294 287 282 278 274 271 269 267 267 266 266 269 269
344 345 342 342 344 347 344 333 317 307 302 300 297 294 291 289 287 290 293 292 289 283 278 278 278 277 275 273 271 271 272 271
357 358 353 348 345 345 345 341 333 326 321 314 303 295 291 289 289 290 290 288 286 283 280 278 278 276 275 273 271 272 273 274
354 347 341 335 334 334 331 328 325 323 321 319 315 306 298 293 290 289 289 288 289 288 284 281 278 276 275 274 272 272 274 275
339 334 331 329 327 327 326 325 324 321 320 320 317 317 314 308 302 297 294 291 287 285 286 284 280 279 275 271 270 270 270 271
332 326 323 323 322 321 318 318 316 317 319 321 320 317 316 315 312 309 305 299 294 290 287 283 281 279 274 270 268 269 270 270
319 314 315 317 317 317 317 315 317 315 315 319 319 317 316 315 313 312 310 307 301 296 291 285 281 274 271 272 272 273 274 274
316 318 320 321 320 320 321 320 320 319 316 311 313 316 317 314 312 311 310 309 306 301 296 287 283 277 272 272 276 278 277 274
316 319 320 321 324 326 327 326 323 321 318 316 314 312 311 311 311 311 309 308 305 301 296 290 286 280 275 273 273 277 280 277
321 322 322 322 322 324 325 324 325 323 320 315 313 312 310 308 308 305 304 303 304 302 300 295 291 288 282 276 275 276 276 279
311 314 318 317 316 316 316 315 315 315 314 312 309 309 307 306 305 303 303 303 304 304 303 301 294 289 282 277 275 274 271 276
308 309 311 312 310 309 309 308 308 309 311 309 308 308 308 306 304 304 302 302 301 304 304 304 295 289 281 279 275 266 277 289
306 305 304 304 302 304 305 304 304 305 308 311 309 306 305 304 303 304 304 302 301 303 301 296 289 287 282 262 253 261 290 295
298 297 297 299 299 299 299 300 300 300 303 306 306 305 305 304 305 301 302 302 303 300 295 296 292 276 269 235 207 271 301 131
290 290 291 292 293 298 298 305 304 302 303 306 307 305 302 300 301 298 302 297 298 307 310 312 311 281 133 154 130 104 95 96
292 292 293 293 294 298 296 299 302 302 304 304 302 300 300 296 286 281 290 298 306 47 32 35 43 107 114 119 98 100 87 89
291 293 294 293 295 296 291 294 297 297 298 298 297 294 288 278 266 256 250 248 147 88 55 84 105 120 129 139 133 124 96 85
291 294 293 294 298 296 293 293 294 294 292 286 282 280 265 253 248 239 224 197 167 134 116 104 115 148 150 155 156 140 162 167
Wind_Speed_850mb
29 35 34 35 38 38 39 39 39 28 23 20 24 27 31 35 41 47 51 53 55 58 61 64 68 74 80 89 95 101 105 106
34 30 30 32 34 32 29 25 25 26 26 23 26 36 39 43 46 48 49 52 56 58 60 64 68 70 76 82 86 93 94 92
21 31 34 39 38 37 31 24 22 24 27 30 36 42 45 46 50 54 58 58 62 65 70 72 72 72 75 78 79 83 85 89
27 31 36 38 39 38 33 28 29 34 38 40 43 48 51 54 55 58 66 71 71 72 75 77 77 78 77 76 78 80 81 79
35 41 44 46 49 51 49 48 47 45 46 48 50 54 57 60 64 70 72 74 74 73 74 76 77 77 75 75 77 80 79 80
37 38 41 46 49 48 50 55 62 64 65 65 63 61 63 67 70 73 75 76 77 78 78 78 78 79 76 75 76 78 79 78
30 31 34 38 42 44 49 54 57 62 65 65 65 64 64 65 67 68 70 70 71 72 72 74 74 73 70 71 75 77 78 78
26 32 36 41 45 48 53 57 60 62 62 64 67 65 63 64 64 63 63 64 67 71 72 72 67 61 62 65 71 74 75 73
26 29 34 38 42 46 51 57 61 63 66 66 69 71 67 65 66 66 66 66 66 66 63 66 63 56 56 60 67 71 71 68
34 38 39 40 43 46 48 54 56 57 61 68 73 75 75 72 69 69 71 68 67 67 66 63 60 53 56 54 62 67 66 62
34 37 42 46 50 53 55 58 61 65 67 66 65 68 74 75 75 75 73 71 66 64 61 60 57 52 53 52 56 59 61 59
33 39 45 49 53 55 57 60 63 66 66 67 69 72 72 73 77 75 76 71 64 60 54 50 50 45 45 44 52 47 49 48
46 50 53 56 57 58 58 61 64 67 70 71 71 73 74 76 74 67 64 60 57 56 51 43 40 38 37 39 44 41 39 36
51 57 57 59 62 65 63 65 65 66 67 70 70 67 68 68 67 66 59 54 49 47 46 38 36 35 31 31 31 23 23 24
57 59 63 60 63 65 67 68 69 68 66 66 67 66 61 57 57 56 52 50 46 43 40 36 30 26 22 16 14 15 18 14
63 67 70 66 65 64 64 66 70 69 65 64 62 57 57 55 51 47 45 41 38 34 32 33 28 20 11 5 4 8 6 1
67 65 63 61 58 55 55 58 63 66 66 61 55 52 52 49 38 33 25 17 14 13 13 12 14 4 4 9 6 6 14 13
64 65 62 58 59 57 61 60 61 63 63 58 49 47 43 36 27 21 14 12 8 4 8 10 10 13 11 11 11 14 19 13
66 65 64 66 64 58 61 61 61 60 56 51 42 36 33 26 19 17 13 8 2 7 10 12 14 17 16 11 11 12 11 12
73 70 69 71 68 59 58 59 57 53 46 38 32 30 25 23 22 18 13 11 11 9 9 11 11 11 10 10 7 6 5 3
Wind_Direction_850mb
29 21 23 22 17 15 14 12 11 16 8 357 353 333 312 297 286 280 277 275 272 269 265 263 260 258 258 260 264 265 266 266
14 19 359 348 346 349 349 351 345 330 319 310 323 327 323 314 308 302 294 289 282 277 271 267 264 261 261 261 262 264 268 269
347 336 335 342 345 344 339 328 316 307 302 300 306 307 304 302 303 302 301 294 287 282 278 274 271 269 267 267 266 266 269 269
344 345 342 342 344 347 344 333 317 307 302 300 297 294 291 289 287 290 293 292 289 283 278 278 278 277 275 273 271 271 272 271
357 358 353 348 345 345 345 341 333 326 321 314 303 295 291 289 289 290 290 288 286 283 280 278 278 276 275 273 271 272 273 274
354 347 341 335 334 334 331 328 325 323 321 319 315 306 298 293 290 289 289 288 289 288 284 281 278 276 275 274 272 272 274 275
339 334 331 329 327 327 326 325 324 321 320 320 317 317 314 308 302 297 294 291 287 285 286 284 280 279 275 271 270 270 270 271
332 326 323 323 322 321 318 318 316 317 319 321 320 317 316 315 312 309 305 299 294 290 287 283 281 279 274 270 268 269 270 270
319 314 315 317 317 317 317 315 317 315 315 319 319 317 316 315 313 312 310 307 301 296 291 285 281 274 271 272 272 273 274 274
316 318 320 321 320 320 321 320 320 319 316 311 313 316 317 314 312 311 310 309 306 301 296 287 283 277 272 272 276 278 277 274
316 319 320 321 324 326 327 326 323 321 318 316 314 312 311 311 311 311 309 308 305 301 296 290 286 280 275 273 273 277 280 277
321 322 322 322 322 324 325 324 325 323 320 315 313 312 310 308 308 305 304 303 304 302 300 295 291 288 282 276 275 276 276 279
311 314 318 317 316 316 316 315 315 315 314 312 309 309 307 306 305 303 303 303 304 304 303 301 294 289 282 277 275 274 271 276
308 309 311 312 310 309 309 308 308 309 311 309 308 308 308 306 304 304 302 302 301 304 304 304 295 289 281 279 275 266 277 289
306 305 304 304 302 304 305 304 304 305 308 311 309 306 305 304 303 304 304 302 301 303 301 296 289 287 282 262 253 261 290 295
298 297 297 299 299 299 299 300 300 300 303 306 306 305 305 304 305 301 302 302 303 300 295 296 292 276 269 235 207 271 301 131
290 290 291 292 293 298 298 305 304 302 303 306 307 305 302 300 301 298 302 297 298 307 310 312 311 281 133 154 130 104 95 96
292 292 293 293 294 298 296 299 302 302 304 304 302 300 300 296 286 281 290 298 306 47 32 35 43 107 114 119 98 100 87 89
291 293 294 293 295 296 291 294 297 297 298 298 297 294 288 278 266 256 250 248 147 88 55 84 105 120 129 139 133 124 96 85
291 294 293 294 298 296 293 293 294 294 292 286 282 280 265 253 248 239 224 197 167 134 116 104 115 148 150 155 156 140 162 167